Regional Weather Roundup
Issued by NWS

Home | Current Version | Previous Version | Graphics & Text | Print | Product List | Glossary On
Versions: 1 2 3 4 5 6 7 8 9 10 11 12 13 14 15 16 17 18 19 20 21 22 23 24 25 26 27 28 29 30 31 32 33 34 35 36 37 38 39 40 41 42 43 44 45 46 47 48 49 50
000
ASUS43 KDMX 051307
RWRIA

WEATHER ROUNDUP FOR IOWA
NATIONAL WEATHER SERVICE DES MOINES IA
700 AM CST THU MAR 05 2015

NOTE: "FAIR" INDICATES FEW OR NO CLOUDS BELOW 12,000 FEET WITH NO
SIGNIFICANT WEATHER AND/OR OBSTRUCTIONS TO VISIBILITY.

* - THESE STATIONS ARE NOT NWS STATIONS...THUS NOT UNDER NWS
QUALITY CONTROL.  THEY ALSO DO NOT REPORT WEATHER SUCH
AS PRECIPITATION OR FOG.

IAZ001>003-012>014-020>022-031>034-043>046-051400-
   NORTHWEST IOWA

CITY           SKY/WX    TMP DP  RH WIND       PRES   REMARKS
CARROLL *      CLEAR     -6 -11  77 W7        30.51R WCI -20
CHEROKEE *     CLEAR     -9 -13  84 CALM      30.50S
DENISON *      CLEAR     -6 -11  77 E3        30.49S
LE MARS *      CLEAR     -8 -11  84 CALM      30.51S
ORANGE CITY *  CLEAR     -6 -11  77 CALM      30.46S
SHELDON *      CLEAR     -9 -15  77 CALM      30.46S
SIOUX CITY     PTCLDY    -2  -7  79 CALM      30.52R
SPENCER        CLEAR     -8 -14  74 W6        30.48R WCI -21
STORM LAKE *   CLEAR     -6 -13  71 NW6       30.47S WCI -18
$$

IAZ055>058-069>071-079>083-090>094-051400-
   SOUTHWEST IOWA

CITY           SKY/WX    TMP DP  RH WIND       PRES   REMARKS
ATLANTIC *     CLEAR     -2  -9  71 CALM      30.53R
AUDUBON *      CLEAR     -2  -9  71 CALM      30.51R
CLARINDA *     CLEAR      0  -4  85 CALM      30.57R
COUNCIL BLFS * CLEAR      1  -6  71 CALM      30.50S
CRESTON *      CLEAR      0  -8  71 NW3       30.52R
HARLAN  *      CLEAR     -2  -6  84 CALM      30.55S
LAMONI         CLEAR      2  -4  76 NW7       30.51R WCI -11
RED OAK *      CLEAR      0  -4  85 CALM      30.55R
SHENANDOAH *   CLEAR      0  -4  85 CALM      30.56S
$$

IAZ047>049-059>061-072>074-084-051400-
   CENTRAL IOWA

CITY           SKY/WX    TMP DP  RH WIND       PRES   REMARKS
AMES           CLEAR     -5 -11  75 W3        30.53R
ANKENY *       CLEAR      0  -8  71 NW5       30.55R WCI -10
CHARITON *     CLEAR      1  -8  66 N5        30.53R WCI  -8
DES MOINES     PTCLDY     2  -7  66 NW3       30.54R
GRINNELL*      CLEAR     -4  -9  77 W3        30.52R
KNOXVILLE *    PTCLDY     0  -9  65 W3        30.53R
MARSHALLTOWN   PTCLDY    -9 -13  83 W6        30.51R WCI -22
PELLA *        CLEAR      0  -4  85 NW3       30.55R
PERRY *          N/A     -4  -8  84 CALM      30.53R
$$

IAZ004>006-015-016-023>025-035-036-051400-
   NORTH CENTRAL IOWA

CITY           SKY/WX    TMP DP  RH WIND       PRES   REMARKS
ALGONA *       CLEAR     -4  -8  84 W6        30.49R WCI -16
CLARION *      CLEAR     -6 -11  77 W5        30.49S WCI -17
ESTHERVILLE    CLEAR     -7 -12  79 W7        30.46R WCI -21
FORT DODGE *     N/A     -8 -13  77 CALM      30.51R
MASON CITY     PTCLDY   -12 -17  78 W8        30.48R WCI -29
FOREST CITY *  CLEAR     -9 -15  77 CALM      30.47R
IOWA FALLS *     N/A    -11 -17  77 W6        30.50R WCI -25
$$

IAZ007>011-017>019-026>030-037>042-050>054-066-051400-
   NORTHEAST IOWA

CITY           SKY/WX    TMP DP  RH WIND       PRES   REMARKS
CEDAR RAPIDS   CLEAR     -8 -12  83 NW8       30.50R WCI -24
CHARLES CITY * CLEAR    -13 -20  70 W5        30.48R WCI -25
CLINTON *      CLEAR    -11 -17  77 W8        30.50R WCI -28
DECORAH *      CLEAR     -9 -17  70 CALM      30.44R
DUBUQUE        CLEAR    -11 -15  82 CALM      30.44R
MONTICELLO *   CLEAR    -13 -18  77 SW3       30.49R
OELWEIN *      CLEAR    -13 -18  77 NW7       30.48R WCI -29
WATERLOO       PTCLDY    -9 -13  83 W5        30.51R WCI -20
$$

IAZ064-065-067-068-078-051400-
   EAST CENTRAL IOWA

CITY           SKY/WX    TMP DP  RH WIND       PRES   REMARKS
DAVENPORT      CLEAR     -8 -14  74 W9        30.49R WCI -25
IOWA CITY      CLEAR     -2  -9  72 NW7       30.54R WCI -15
MT. PLEASANT * CLEAR      1  -8  66 NW7       30.52R WCI -11
MUSCATINE *    CLEAR      1  -6  71 NW10      30.54R WCI -14
QUAD CITIES    CLEAR      1  -8  66 NW9       30.50R WCI -14
$$

IAZ062-063-075>077-085>089-095>099-051400-
   SOUTHEAST IOWA

CITY           SKY/WX    TMP DP  RH WIND       PRES   REMARKS
BURLINGTON     CLEAR      2  -5  72 NW6       30.51R WCI  -9
FAIRFIELD *    CLEAR      0  -9  65 NW6       30.53R WCI -12
FORT MADISON * CLEAR      1  -4  78 NW3       30.52R
KEOKUK *       MOCLDY     5  -2  72 NW6       30.51S WCI  -6
OSKALOOSA *      N/A      0  -6  78 NW6       30.54R WCI -12
CENTERVILLE *  MOCLDY     3  -2  78 NW7       30.53R WCI  -9
OTTUMWA        CLEAR      0  -6  76 NW6       30.52R WCI -12
WASHINGTON *   CLEAR      1  -4  78 NW7       30.53R WCI -11
$$

ABBREVIATIONS USED IN REMARKS
   TC - TEMPERATURES IN CELSIUS
  WCI - WIND CHILL INDEX
   HX - HEAT INDEX
  VSB - VISIBILITY
$$




USA.gov is the U.S. government's official web portal to all federal, state and local government web resources and services.